#timestamp,LO_Frequency,Hit,StdDev 
1548298815.3,286047004.8,N
1548298835.2,286047003.1,N
1548298855.0,286047005.5,N
1548298855.9,286047005.5,N
1548298875.8,286047005.9,N
1548298895.6,286047006.0,N
1548298915.4,286047003.7,N
1548298935.3,286047002.3,N
1548298955.1,286047002.6,N
1548298975.8,286047001.5,N
1548298995.7,286047000.6,N
1548299015.5,286047000.4,N
1548299035.4,286047001.3,N
1548299055.2,286047003.8,N
1548299075.0,286047003.4,N
1548299075.9,286047003.4,N
1548299095.8,286047007.6,N
1548299115.6,286047007.4,N
1548299135.4,286047007.9,N
1548299155.3,286047008.3,N
1548299175.1,286047009.4,Y
1548299195.9,286047007.5,P
1548299215.7,286047004.5,N
1548299235.5,286047005.5,P
1548299255.4,286047005.1,Y
1548299275.2,286046999.5,P
1548299295.0,286046997.0,N
1548299295.9,286046997.0,N
1548299315.8,286046997.0,N
1548299335.6,286046999.6,N
1548299355.5,286046995.2,N
1548299375.3,286046995.7,N
1548299395.1,286046994.0,N
1548299415.9,286046992.9,N
1548299435.7,286046994.4,N
1548299455.6,286046992.9,N
1548299475.4,286046994.8,N
1548299495.2,286046993.4,N
1548299515.1,286046995.4,N
1548299516.0,286046995.4,N
1548299535.8,286046997.3,N
1548299555.6,286046997.4,N
1548299575.5,286046999.5,N
1548299595.3,286046996.9,N
1548299615.2,286046996.6,N
1548299635.9,286047000.7,N
1548299655.7,286047000.8,N
1548299675.6,286046999.2,N
1548299695.4,286046996.8,N
1548299715.2,286046998.8,N
1548299735.1,286046998.2,N
1548299736.0,286046998.2,N
1548299755.8,286047000.0,N
1548299775.7,286046998.3,N
1548299795.5,286046997.0,N
1548299815.3,286046996.7,N
1548299835.2,286046996.9,N
1548299855.0,286047001.2,N
1548299855.9,286047001.2,N
1548299875.7,286046999.7,N
1548299895.6,286047001.7,N
1548299915.4,286047001.5,N
1548299935.3,286047001.5,N
1548299955.1,286047002.3,N
1548299956.0,286047002.3,N
1548299975.8,286047002.7,N
1548299995.7,286047003.9,N
1548300015.5,286047005.8,N
1548300035.3,286047003.4,N
1548300055.2,286047001.7,N
1548300075.0,286047001.7,N
1548300075.9,286047001.7,N
1548300095.8,286047004.3,N
1548300115.6,286047004.1,N
1548300135.4,286047001.7,N
1548300155.3,286047002.4,N
1548300175.1,286047002.7,N
1548300195.8,286047000.8,N
1548300215.7,286046998.4,N
1548300235.5,286046999.1,N
1548300255.4,286047000.4,N
1548300275.2,286047000.4,N
1548300295.0,286047000.3,N
1548300295.9,286047000.3,N
1548300315.8,286046998.1,N
1548300335.6,286046998.1,N
1548300355.4,286047001.1,N
1548300375.3,286046999.1,N
1548300395.1,286047000.3,N
1548300415.9,286047001.1,N
1548300435.7,286047001.1,N
1548300455.5,286046996.5,N
1548300475.4,286046996.7,N
1548300495.2,286046996.7,N
1548300515.0,286046999.6,N
1548300515.9,286046999.6,N
1548300535.8,286046999.6,N
1548300555.6,286046996.9,N
1548300575.5,286046999.6,N
1548300595.3,286046996.7,N
1548300615.1,286046998.7,N
1548300635.9,286046999.2,N
1548300655.7,286046994.9,N
1548300675.5,286046997.5,N
1548300695.4,286046997.9,N
1548300715.2,286046998.0,N
1548300735.1,286046995.3,N
1548300736.0,286046995.3,N
1548300755.8,286046996.4,N
1548300775.6,286046993.6,Y
1548300795.5,286046995.7,P
1548300815.3,286046995.8,P
1548300835.1,286046998.9,N
1548300855.9,286046996.8,N
1548300875.7,286046995.3,Y
1548300895.6,286046996.6,P
1548300915.4,286046999.6,N
1548300935.2,286046995.0,P
1548300955.1,286046996.7,N
1548300956.0,286046996.7,N
1548300975.8,286046994.9,Y
1548300995.6,286046998.4,P
1548301015.5,286046998.4,N
1548301035.3,286047002.8,P
1548301055.2,286047002.7,N
1548301075.9,286047002.8,N
1548301095.7,286047001.6,N
1548301115.6,286047000.2,N
1548301135.4,286047002.2,N
1548301155.2,286047002.1,N
1548301175.1,286047001.7,N
1548301176.0,286047001.7,N
1548301195.8,286047004.3,N
1548301215.7,286047004.0,N
1548301235.5,286047003.7,N
1548301255.3,286047005.4,N
1548301275.2,286047003.6,N
1548301295.0,286047003.5,N
1548301295.9,286047003.5,N
1548301315.7,286047004.2,N
1548301335.6,286046999.9,N
1548301355.4,286047002.4,N
1548301375.3,286047001.9,N
1548301395.1,286047002.0,N
1548301396.0,286047002.0,N
1548301415.8,286047002.6,N
1548301435.7,286047000.9,N
1548301455.5,286047002.3,N
1548301475.3,286047003.8,N
1548301495.2,286047005.5,N
1548301515.0,286047005.3,N
1548301515.9,286047005.3,Y
1548301535.8,286047000.0,P
1548301555.6,286046999.7,N
1548301575.4,286047001.1,N
1548301595.3,286046998.7,N
1548301615.1,286047000.9,N
1548301635.8,286047000.7,N
1548301655.7,286047002.0,N
1548301675.5,286047002.2,N
1548301695.4,286047001.5,N
1548301715.2,286047001.9,N
1548301735.0,286047002.1,N
1548301735.9,286047002.1,N
1548301755.8,286047001.0,N
1548301775.6,286046998.8,N
1548301795.4,286046999.2,N
1548301815.3,286046995.3,Y
1548301835.1,286046997.6,P
1548301855.9,286046995.0,P
1548301875.7,286046995.1,N
1548301895.5,286046997.4,N
1548301915.4,286046997.4,N
1548301935.2,286046997.6,N
1548301955.0,286046999.2,N
1548301956.0,286046999.2,N
1548301975.8,286046996.8,N
1548301995.6,286046995.1,N
1548302015.5,286046997.8,N
1548302035.3,286046993.4,Y
1548302055.1,286046995.8,P
1548302075.9,286046996.4,P
1548302095.7,286046991.8,P
1548302115.6,286046993.8,N
1548302135.4,286046993.3,Y
1548302155.2,286047000.8,P
1548302175.1,286047001.1,N
1548302176.0,286047001.1,N
1548302195.8,286046998.6,N
1548302215.6,286047000.3,N
1548302235.5,286047002.7,N
1548302255.3,286047005.2,N
1548302275.2,286047004.8,N
1548302295.9,286047004.6,N
1548302315.7,286047011.9,Y
1548302335.6,286047008.7,P
1548302355.4,286047006.1,N
1548302375.2,286047008.8,N
1548302395.1,286047007.2,N
1548302396.0,286047007.2,N
